Regional Weather Roundup
Issued by NWS

Home | Current Version | Previous Version | Text Only | Print | Product List | Glossary On
Versions: 1 2 3 4 5 6 7 8 9 10 11 12 13 14 15 16 17 18 19 20 21 22 23 24 25 26 27 28 29 30 31 32 33 34 35 36 37 38 39 40 41 42 43 44 45 46 47 48 49 50
000
ASUS45 KPSR 220410
RWRAZ

ARIZONA REGIONAL HOURLY WEATHER ROUNDUP
NATIONAL WEATHER SERVICE PHOENIX AZ
900 PM MST SUN DEC 21 2014

NOTE: FAIR INDICATES FEW OR NO CLOUDS BELOW 12,000 FEET WITH NO
SIGNIFICANT WEATHER AND/OR OBSTRUCTIONS TO VISIBILITY.

AZZ001>003-036-220500-
NORTHWEST ARIZONA

CITY           SKY/WX    TMP DP  RH WIND       PRES   REMARKS
BULLHEAD CITY  CLOUDY    54  43  66 CALM      30.08R
KINGMAN        CLOUDY    39  34  82 CALM      30.10R
$$

AZZ004>008-015-016-018-220500-
NORTH CENTRAL ARIZONA

CITY           SKY/WX    TMP DP  RH WIND       PRES   REMARKS
GRAND CANYON   CLOUDY    36  31  82 CALM      30.13R
PRESCOTT       CLOUDY    44  32  62 SW3       30.09F
FLAGSTAFF      CLOUDY    42  31  64 W5        30.09F
PAYSON         CLOUDY    43  36  75 CALM      30.10S
PAGE           MOCLDY    41  32  70 SE3       30.01R
$$

AZZ009>014-017-220500-
NORTHEAST ARIZONA

CITY           SKY/WX    TMP DP  RH WIND       PRES   REMARKS
WINSLOW        CLOUDY    38  34  85 S6        30.03F WCI  33
SAINT JOHNS    MOCLDY    36  30  79 S6        30.06F WCI  31
WINDOW ROCK    PTCLDY    36  29  75 NE3       30.02F
SHOW LOW       CLOUDY    37  28  70 S7        30.12R WCI  32
$$

AZZ023-220500-
GREATER PHOENIX AREA

CITY           SKY/WX    TMP DP  RH WIND       PRES   REMARKS
PHOENIX        MOCLDY    57  42  57 CALM      30.04S
BUCKEYE          N/A     48  46  93 NE5       30.06R
LUKE AFB       MOCLDY    49  45  86 CALM      30.04F
DEER VALLEY    MOCLDY    51  42  71 CALM      30.04F
SCOTTSDALE     PTCLDY    54  42  64 NE5       30.06F
MESA-GATEWAY   CLEAR     50  43  76 SE3       30.07R
CHANDLER       PTCLDY    52  43  71 CALM      30.05R
$$

AZZ027-028-220500-
SOUTHWEST MARICOPA COUNTY AND PINAL COUNTY

CITY           SKY/WX    TMP DP  RH WIND       PRES   REMARKS
CASA GRANDE    MOCLDY    48  41  76 MISG      30.06R
GILA BEND      FAIR      51  44  76 SE5       30.06R
$$

AZZ503-504-507>509-220500-
SOUTHEAST ARIZONA

CITY           SKY/WX    TMP DP  RH WIND       PRES   REMARKS
TUCSON         MOCLDY    51  38  60 S5        30.08F
DAVIS-MONTHAN  PTCLDY    49  39  70 S5        30.06S
NOGALES        CLOUDY    46  34  62 SE3       30.08R
SIERRA VISTA   CLOUDY    48  34  58 W9        30.09R
DOUGLAS        MOCLDY    45  32  60 N6        30.07S
SAFFORD        CLOUDY    51  35  54 NW10      30.01S
$$

AZZ020-021-025-026-031-220500-
SOUTHWEST ARIZONA

CITY           SKY/WX    TMP DP  RH WIND       PRES   REMARKS
YUMA           CLOUDY   N/A N/A N/A NW5       30.05S
$$

CAZ031-033-041-043-047-048-061-220500-
SOUTHERN CALIFORNIA

CITY           SKY/WX    TMP DP  RH WIND       PRES   REMARKS
DOWNTOWN L.A.  CLOUDY    60  54  80 CALM      30.05R HAZE
L.A. AIRPORT   CLOUDY    61  56  83 CALM      30.05R
SAN DIEGO      MOCLDY    61  55  81 CALM      30.08R
BURBANK        CLOUDY    60  51  72 SE6       30.05R
ONTARIO        CLOUDY    56  49  77 CALM      30.06S HAZE
RIVERSIDE      CLOUDY    56  49  77 CALM      30.06F
PALM SPRINGS   CLOUDY    59  49  69 VRB5      30.09R
EL CENTRO NAS  MOCLDY    55  46  71 NE5       30.05R
IMPERIAL       MOCLDY    56  46  69 CALM      30.05R
BLYTHE         CLOUDY    54  49  83 W5        30.05F
NEEDLES        CLOUDY    53  41  63 W7        30.06F
$$

NVZ020-UTZ003-220500-
SOUTHERN NEVADA-UTAH

CITY           SKY/WX    TMP DP  RH WIND       PRES   REMARKS
LAS VEGAS      CLOUDY    51  39  63 SW9       30.03F
SALT LAKE CITY CLOUDY    45  40  82 NW13      30.00R
$$

NMZ009-TXZ055-220500-
NEW MEXICO-WEST TEXAS

CITY           SKY/WX    TMP DP  RH WIND       PRES   REMARKS
ALBUQUERQUE    PTCLDY    37  28  70 E5        29.93F WCI  33
EL PASO        MOCLDY    56  27  32 SE10G20   29.91R
$$


........................KEY........................
SKY/WX - SKY CONDITION/WEATHER
TMP    - TEMPERATURE IN FAHRENHEIT
DP     - DEW POINT IN FAHRENHEIT
RH     - RELATIVE HUMIDITY IN PERCENT
WIND   - DIRECTION AND SPEED IN MILES PER HOUR (MPH)
VRB    - VARIABLE WIND DIRECTION
PRES   - MEAN SEA LEVEL PRESSURE IN INCHES OF MERCURY
         F - FALLING PRESSURE   R - RISING PRESSURE
         S - STEADY PRESSURE
VSB    - VISIBILITY IN MILES
HX     - HEAT INDEX IN FAHRENHEIT
WCI    - WIND CHILL INDEX IN FAHRENHEIT
TC     - TEMPERATURE IN CELSIUS WHICH IS ALSO KNOWN AS
         TEMPERATURE IN CENTIGRADE
AFB    - AIR FORCE BASE
         LUKE AFB IS LUKE AIR FORCE BASE
         DAVIS-MONTHAN IS DAVIS-MONTHAN AIR FORCE BASE
NAS    - NAVAL AIR STATION
         EL CENTRO NAS IS EL CENTRO NAVAL AIR STATION
N/A    - NOT AVAILABLE



USA.gov is the U.S. government's official web portal to all federal, state and local government web resources and services.